Grayling, MI

9:54 PM EDT on June 24, 2017 (GMT -0400)
Grayling

Weather History for KGOV - October, 2011

Change the Weather History Date:

Friday, October 21, 2011

  Actual Average (KHTL) Record (KHTL)
Temperature  
Mean Temperature 40 °F -  
Max Temperature 44 °F 53 °F 82 °F (1947)
Min Temperature 37 °F 37 °F 21 °F (1923)
Degree Days  
Heating Degree Days 24    
Moisture  
Dew Point 34 °F    
Average Humidity 81    
Maximum Humidity 100    
Minimum Humidity 66    
Precipitation  
Precipitation 0.00 in - - ()
Sea Level Pressure  
Sea Level Pressure 29.89 in    
Wind  
Wind Speed 9 mph (WNW)    
Max Wind Speed 13 mph    
Max Gust Speed 21 mph    
Visibility 9 miles    
Events Rain    
Averages and records for this station are not official NWS values.
T = Trace of Precipitation, MM = Missing Value Source: NWS Daily Summary

Daily Weather History Graph

Daily Weather History Graph

Search for Another Location

Airport or City:

Trip Planner

Search our weather history database for the weather conditions in past years. The results will help you decide how hot, cold, wet, or windy it might be!

Date:

Astronomy

Oct. 21, 2011 Rise Set
Actual Time 8:01 AM EDT 6:44 PM EDT
Civil Twilight 7:31 AM EDT 7:14 PM EDT
Nautical Twilight 6:57 AM EDT 7:48 PM EDT
Astronomical Twilight 6:24 AM EDT 8:22 PM EDT
Moon 1:35 AM EDT (10/21) 3:41 PM EDT (10/21)
Length of Visible Light 11h 42m
Length of Day
10h 43m
Waning Crescent, 34% of the Moon is Illuminated
Oct 21
Waning Crescent
Oct 26
New
Nov 2
First Quarter
Nov 10
Full
Nov 18
Last Quarter

Hourly Weather History & Observations

Time (EDT) Temp. Windchill Dew Point Humidity Pressure Visibility Wind Dir Wind Speed Gust Speed Precip Events Conditions
12:15 AM 37.4 °F 30.8 °F 37.4 °F 100% 29.66 in 7.0 mi NNW 9.2 mph 17.3 mph N/A Rain Light Rain
12:34 AM 37.4 °F 29.8 °F 37.4 °F 100% 29.66 in 10.0 mi NNW 11.5 mph 17.3 mph N/A   Overcast
12:55 AM 37.4 °F 30.8 °F 35.6 °F 93% 29.67 in 10.0 mi NNW 9.2 mph - N/A   Overcast
1:14 AM 37.4 °F 30.8 °F 35.6 °F 93% 29.68 in 10.0 mi NNW 9.2 mph - N/A   Overcast
1:34 AM 39.2 °F 33.0 °F 35.6 °F 87% 29.69 in 10.0 mi NW 9.2 mph - N/A   Overcast
2:35 AM 39.2 °F 33.0 °F 35.6 °F 87% 29.71 in 10.0 mi NNW 9.2 mph 17.3 mph N/A   Overcast
2:55 AM 37.4 °F 30.8 °F 35.6 °F 93% 29.72 in 10.0 mi NNW 9.2 mph - N/A   Scattered Clouds
3:14 AM 37.4 °F 32.8 °F 35.6 °F 93% 29.73 in 10.0 mi WNW 5.8 mph - N/A   Scattered Clouds
3:35 AM 37.4 °F 31.4 °F 35.6 °F 93% 29.74 in 10.0 mi NW 8.1 mph - N/A   Mostly Cloudy
3:54 AM 39.2 °F 35.0 °F 35.6 °F 87% 29.74 in 10.0 mi WNW 5.8 mph - N/A   Overcast
4:15 AM 39.2 °F 33.6 °F 35.6 °F 87% 29.75 in 10.0 mi NW 8.1 mph - N/A   Overcast
4:35 AM 39.2 °F 35.0 °F 35.6 °F 87% 29.75 in 10.0 mi WNW 5.8 mph - N/A   Overcast
4:54 AM 39.2 °F 33.0 °F 35.6 °F 87% 29.76 in 10.0 mi WNW 9.2 mph - N/A   Overcast
5:15 AM 37.4 °F 29.8 °F 37.4 °F 100% 29.77 in 3.0 mi NW 11.5 mph 16.1 mph N/A Rain Light Rain
5:35 AM 37.4 °F 31.4 °F 37.4 °F 100% 29.78 in 2.0 mi WNW 8.1 mph - N/A Rain Light Rain
5:54 AM 37.4 °F 30.3 °F 37.4 °F 100% 29.79 in 4.0 mi WNW 10.4 mph - N/A   Overcast
6:34 AM 37.4 °F 31.4 °F 37.4 °F 100% 29.81 in 7.0 mi West 8.1 mph - N/A   Overcast
6:54 AM 37.4 °F 32.1 °F 37.4 °F 100% 29.82 in 7.0 mi West 6.9 mph - N/A   Overcast
7:15 AM 37.4 °F 32.1 °F 35.6 °F 93% 29.83 in 7.0 mi West 6.9 mph - N/A   Overcast
7:34 AM 37.4 °F 31.4 °F 35.6 °F 93% 29.84 in 5.0 mi WNW 8.1 mph - N/A   Overcast
8:15 AM 37.4 °F 31.4 °F 35.6 °F 93% 29.87 in 10.0 mi WNW 8.1 mph - N/A   Overcast
8:34 AM 37.4 °F 31.4 °F 35.6 °F 93% 29.88 in 10.0 mi WNW 8.1 mph - N/A   Overcast
8:55 AM 37.4 °F 30.8 °F 33.8 °F 87% 29.89 in 10.0 mi West 9.2 mph - N/A   Overcast
9:14 AM 37.4 °F 30.8 °F 33.8 °F 87% 29.89 in 10.0 mi WNW 9.2 mph - N/A   Overcast
9:35 AM 37.4 °F 31.4 °F 33.8 °F 87% 29.90 in 10.0 mi WNW 8.1 mph - N/A   Overcast
9:55 AM 37.4 °F 32.1 °F 33.8 °F 87% 29.90 in 10.0 mi WNW 6.9 mph - N/A   Overcast
10:14 AM 39.2 °F 33.6 °F 33.8 °F 81% 29.91 in 10.0 mi WNW 8.1 mph - N/A   Overcast
10:35 AM 39.2 °F 32.5 °F 33.8 °F 81% 29.92 in 10.0 mi NW 10.4 mph 16.1 mph N/A   Overcast
10:55 AM 39.2 °F 31.6 °F 32.0 °F 75% 29.93 in 10.0 mi NW 12.7 mph 16.1 mph N/A   Overcast
11:14 AM 39.2 °F 34.2 °F 32.0 °F 75% 29.94 in 10.0 mi NW 6.9 mph 16.1 mph N/A   Overcast
11:35 AM 41.0 °F 35.2 °F 33.8 °F 76% 29.94 in 10.0 mi WNW 9.2 mph - N/A   Overcast
11:55 AM 41.0 °F 34.7 °F 33.8 °F 76% 29.94 in 10.0 mi NW 10.4 mph 20.7 mph N/A   Overcast
12:14 PM 41.0 °F 35.2 °F 33.8 °F 76% 29.95 in 10.0 mi WNW 9.2 mph - N/A   Overcast
12:35 PM 41.0 °F 34.3 °F 33.8 °F 76% 29.95 in 10.0 mi NW 11.5 mph - N/A   Overcast
12:54 PM 41.0 °F 34.7 °F 32.0 °F 70% 29.96 in 10.0 mi WNW 10.4 mph 20.7 mph N/A   Overcast
1:14 PM 41.0 °F 34.7 °F 32.0 °F 70% 29.95 in 10.0 mi West 10.4 mph 19.6 mph N/A   Overcast
1:25 PM 41.0 °F 33.9 °F 33.8 °F 76% 29.95 in 10.0 mi West 12.7 mph 18.4 mph N/A   Overcast
2:05 PM 41.0 °F 34.7 °F 33.8 °F 76% 29.96 in 10.0 mi West 10.4 mph 18.4 mph N/A   Overcast
2:35 PM 41.0 °F 34.7 °F 32.0 °F 70% 29.96 in 10.0 mi West 10.4 mph 18.4 mph N/A   Overcast
2:54 PM 42.8 °F 38.0 °F 33.8 °F 70% 29.96 in 10.0 mi West 8.1 mph - N/A   Overcast
3:15 PM 42.8 °F 36.6 °F 33.8 °F 70% 29.96 in 10.0 mi WNW 11.5 mph - N/A   Overcast
3:35 PM 42.8 °F 36.6 °F 32.0 °F 66% 29.96 in 10.0 mi NW 11.5 mph 16.1 mph N/A   Overcast
3:54 PM 44.6 °F 39.7 °F 33.8 °F 66% 29.96 in 10.0 mi WNW 9.2 mph 17.3 mph N/A   Overcast
4:15 PM 44.6 °F 39.2 °F 33.8 °F 66% 29.97 in 10.0 mi NW 10.4 mph 16.1 mph N/A   Overcast
4:34 PM 42.8 °F 37.0 °F 32.0 °F 66% 29.97 in 10.0 mi WNW 10.4 mph 18.4 mph N/A   Overcast
4:54 PM 42.8 °F 38.6 °F 32.0 °F 66% 29.98 in 10.0 mi WNW 6.9 mph - N/A   Overcast
5:15 PM 42.8 °F 37.0 °F 32.0 °F 66% 29.98 in 10.0 mi NW 10.4 mph - N/A   Overcast
5:34 PM 42.8 °F 38.6 °F 32.0 °F 66% 29.99 in 10.0 mi West 6.9 mph - N/A   Overcast
5:55 PM 41.0 °F 36.4 °F 32.0 °F 70% 29.99 in 10.0 mi WNW 6.9 mph - N/A   Overcast
7:15 PM 41.0 °F - 32.0 °F 70% 30.01 in 10.0 mi Calm Calm - N/A   Overcast
7:34 PM 41.0 °F 38.0 °F 32.0 °F 70% 30.01 in 10.0 mi West 4.6 mph - N/A   Overcast
7:55 PM 41.0 °F 36.4 °F 32.0 °F 70% 30.01 in 10.0 mi West 6.9 mph - N/A   Overcast
8:14 PM 41.0 °F 36.4 °F 32.0 °F 70% 30.01 in 10.0 mi West 6.9 mph - N/A   Overcast
8:34 PM 39.2 °F 35.0 °F 32.0 °F 75% 30.02 in 10.0 mi West 5.8 mph - N/A   Overcast
8:55 PM 39.2 °F 37.0 °F 32.0 °F 75% 30.02 in 10.0 mi WSW 3.5 mph - N/A   Overcast
9:14 PM 39.2 °F 37.0 °F 32.0 °F 75% 30.02 in 10.0 mi West 3.5 mph - N/A   Overcast
9:35 PM 39.2 °F 37.0 °F 32.0 °F 75% 30.03 in 10.0 mi West 3.5 mph - N/A   Overcast
9:55 PM 39.2 °F 35.9 °F 32.0 °F 75% 30.03 in 10.0 mi West 4.6 mph - N/A   Overcast
10:14 PM 37.4 °F 33.8 °F 32.0 °F 81% 30.03 in 10.0 mi WSW 4.6 mph - N/A   Overcast
10:35 PM 37.4 °F 33.8 °F 32.0 °F 81% 30.03 in 10.0 mi WSW 4.6 mph - N/A   Overcast
10:55 PM 37.4 °F 33.8 °F 32.0 °F 81% 30.03 in 10.0 mi West 4.6 mph - N/A   Overcast
11:14 PM 37.4 °F - 32.0 °F 81% 30.03 in 10.0 mi Calm Calm - N/A   Overcast
11:35 PM 37.4 °F - 32.0 °F 81% 30.03 in 10.0 mi Calm Calm - N/A   Mostly Cloudy
11:54 PM 35.6 °F - 32.0 °F 87% 30.03 in 10.0 mi Calm Calm - N/A   Scattered Clouds